SCP
0 0 0 0 0 0 0 0 0 0 0 0 0 0 0 0 0 0 0 0 -0 -0 -0 -0 -0 -0 -0 -0 -0 -0 -0 -0 -0 -0 -0 -0 -0 -0 -0 -0 0 0 -0 -0 0 0 0 0 0
0 0 -0 0 0 0 0 0 0 0 0 0 0 0 0 0 0 0 0 0 -0 -0 -0 -0 -0 -0 -0 -0 -0 -0 -0 -0 -0 -0 -0 -0 0 0 0 0 0 0 0 -0 0 0 0 0 0
-0 -0 -0 -0 -0 0 0 0 0 0 0 0 0 0 0 0 0 0 0 0 -0 -0 -0 -0 -0 -0 -0 -0 -0 -0 -0 -0 0 0 0 0 0 0 0 0 0 0 0 -0 -0 -0 -0 -0 -0
-0 -0 -0 -0 -0 0 0 0 0 0 0 0 0 0 0 0 0 0 0 0 -0 -0 -0 -0 -0 -0 -0 -0 -0 -0 -0 0 0 0 0 0 0 0 0 0 0 0 0 -0 -0 -0 -0 -0 -0
-0 -0 -0 -0 -0 0 0 0 0 0 0 0 0 0 0 0 0 0 0 0 0 -0 -0 0 0 0 0 0 0 0 0 0 0 0 0 0 -0 0 0 0 0 0 -0 -0 -0 -0 -0 -0 -0
-0 -0 -0 -0 -0 0 0 0 0 0 0 0 0 0 0 0 0 0 0 0 0 0 0 0 0 0 0 0 0 0 0 -0 -0 -0 -0 -0 -0 -0 -0 -0 -0 -0 -0 -0 -0 -0 -0 -0 -0
-0 -0 -0 -0 -0 0 0 0 0 0 0 0 0 0 0 0 0 0 0 0 0 0 0 0 0 0 0 0 0 0 0 -0 -0 -0 -0 -0 -0 -0 -0 -0 -0 -0 -0 -0 -0 -0 -0 -0 -0
-0 -0 -0 -0 -0 0 0 0 0 0 0 0 0 0 0 0 0 0 0 0 0 0 0 0 0 0 0 0 0 0 0 0 0 0 0 0 0 -0 -0 -0 -0 -0 -0 -0 -0 -0 -0 -0 -0
-0 -0 -0 -0 -0 0 0 0 0 0 0 0 0 0 0 0 0 0 0 0 0 0 0 0 0 0 0 0 0 0 0 0 0 0 0 0 -0 -0 -0 -0 -0 -0 -0 -0 -0 -0 -0 -0 -0
-0 -0 -0 -0 0 0 0 0 0 0 0 0 0 0 0 0 0 0 0 0 0 0 0 0 0 0 0 0 0 0 0 0 0 0 0 0 -0 -0 -0 -0 -0 -0 -0 -0 -0 -0 -0 -0 -0
-0 -0 0 0 0 0 0 0 0 0 0 0 0 0 0 0 0 0 0 0 0 0 0 0 0 0 0 0 0 0 0 0 0 -0 -0 -0 -0 -0 -0 -0 -0 -0 -0 -0 -0 -0 -0 -0 -0
-0 -0 0 0 0 0 0 0 0 0 0 0 0 0 0 0 0 0 0 0 0 0 0 0 0 0 0 0 0 0 0 0 -0 -0 -0 -0 -0 -0 -0 -0 -0 -0 -0 -0 -0 -0 -0 -0 -0
-0 0 0 0 0 0 0 0 0 0 0 0 0 0 0 0 0 0 0 0 0 0 0 0 0 0 0 0 0 0 0 0 -0 -0 -0 -0 -0 -0 -0 -0 -0 -0 -0 -0 -0 -0 -0 -0 -0
0 0 0 0 0 0 0 0 0 0 0 0 0 0 0 0 0 0 0 0 0 0 0 0 0 0 0 0 0 0 -0 -0 -0 -0 -0 -0 -0 -0 -0 -0 -0 -0 -0 -0 -0 -0 -0 -0 -0
-0 -0 0 0 0 0 0 0 0 0 0 0 0 0 0 0 0 0 0 0 0 0 0 0 0 0 0 -0 -0 -0 -0 -0 -0 -0 -0 -0 -0 -0 -0 -0 -0 -0 -0 -0 -0 -0 -0 -0 -0
-0 -0 -0 0 0 0 0 0 0 0 0 0 0 0 0 0 0 0 0 0 0 0 0 0 0 0 0 -0 -0 -0 -0 -0 -0 -0 -0 -0 -0 -0 -0 -0 -0 -0 -0 -0 -0 -0 -0 -0 -0
-0 -0 -0 0 0 0 0 0 0 0 0 0 0 0 0 0 0 0 0 0 0 0 0 0 0 0 0 0 -0 -0 -0 -0 -0 -0 -0 -0 -0 -0 -0 -0 -0 -0 -0 -0 -0 -0 -0 -0 -0
-0 -0 -0 0 0 -0 -0 0 0 0 0 0 0 0 0 0 0 0 0 0 0 0 0 0 0 0 0 0 -0 -0 -0 -0 -0 -0 -0 -0 -0 -0 -0 -0 -0 -0 -0 -0 -0 -0 -0 -0 -0
-0 -0 -0 -0 -0 -0 -0 -0 0 0 0 0 0 0 0 0 0 0 0 0 0 0 0 0 0 0 0 -0 -0 -0 -0 -0 -0 -0 -0 -0 -0 -0 -0 -0 -0 -0 -0 -0 -0 -0 -0 -0 -0
-0 -0 -0 0 -0 -0 -0 -0 -0 0 0 0 0 0 0 0 0 0 0 0 0 0 0 0 0 0 -0 -0 -0 -0 -0 -0 -0 -0 -0 -0 0 0 0 0 0 -0 -0 -0 -0 -0 -0 -0 -0
-0 -0 0 0 -0 -0 -0 -0 -0 -0 0 0 0 0 0 0 0 0 0 0 0 0 0 0 0 0 -0 -0 -0 -0 -0 -0 -0 -0 -0 0 0 0 0 0 0 -0 -0 -0 -0 -0 -0 -0 -0
0 0 0 0 0 -0 -0 -0 -0 -0 0 0 0 0 0 0 0 0 0 0 0 0 0 0 0 0 -0 -0 -0 -0 -0 -0 -0 -0 -0 -0 -0 -0 -0 -0 -0 -0 -0 -0 -0 -0 -0 -0 -0
0 0 0 0 0 -0 -0 -0 -0 0 0 0 0 0 0 0 0 0 0 0 0 0 0 0 0 0 0 -0 -0 -0 -0 -0 -0 -0 -0 -0 -0 -0 -0 -0 -0 -0 -0 -0 -0 -0 -0 -0 -0
0 0 0 0 0 0 -0 -0 -0 0 0 0 0 0 0 0 0 0 0 0 0 0 0 0 0 0 0 -0 -0 -0 -0 -0 -0 -0 -0 -0 -0 -0 -0 -0 -0 -0 -0 -0 -0 -0 -1 -1 -1
-0 0 0 0 0 0 0 -0 -0 0 0 0 0 0 0 0 0 0 0 0 0 0 0 0 0 0 0 0 -0 -0 -0 -0 -0 -0 -0 -0 -0 -0 -0 -0 -0 -1 -1 -1 -1 -1 -1 -1 -1
-0 -0 0 0 0 0 0 0 -0 0 0 0 0 0 0 0 0 0 0 0 0 0 0 0 0 0 0 -0 -0 -0 -0 -1 -1 -1 -1 -0 -0 -0 -0 -0 -0 -1 -1 -1 -1 -1 -1 -1 -1
-0 -0 -0 -0 0 0 0 0 0 0 0 0 0 0 0 0 0 0 0 0 0 0 0 0 0 0 -0 -0 -0 -0 -1 -1 -1 -1 -1 -1 -0 -0 -0 -0 -0 -1 -1 -1 -1 -1 -1 -1 -1
0 -0 -0 -0 -0 0 0 0 0 0 0 0 0 0 0 0 0 0 0 0 0 0 0 0 0 0 -0 -0 -0 -0 -1 -1 -1 -1 -1 -1 -1 -0 -0 -0 -0 -1 -1 -1 -1 -1 -1 -1 -1
0 -0 -0 -0 -0 -0 0 0 0 0 0 0 0 0 0 0 0 0 0 0 0 0 0 0 0 0 0 -0 -0 -0 -1 -1 -1 -1 -1 -1 -1 -1 -1 -1 -1 -1 -1 -1 -1 -1 -1 -1 -2
0 -0 -0 -0 -0 -0 -0 0 0 0 0 0 0 0 0 0 0 1 1 0 0 0 0 0 0 0 0 -0 -0 -0 -0 -1 -1 -1 -1 -1 -1 -1 -1 -1 -1 -1 -1 -1 -1 -1 -2 -2 -2
Wind_Speed
13 11 7 6 3 8 13 10 9 9 8 9 9 8 10 11 10 10 8 7 7 7 8 9 9 9 9 10 10 12 12 13 13 13 14 14 14 14 15 15 15 16 16 16 16 16 16 16 16
10 8 7 3 4 10 12 10 11 11 9 8 9 9 11 11 10 9 8 7 7 7 8 10 9 9 9 9 10 11 12 13 13 13 14 14 14 14 15 15 16 16 16 16 16 15 15 15 15
8 7 4 4 11 12 12 10 11 10 7 6 7 8 8 9 8 7 8 8 7 8 8 11 8 9 9 9 10 11 12 12 13 13 14 14 14 14 15 15 15 15 15 15 15 14 15 14 14
6 5 1 8 15 14 11 10 9 9 9 7 8 10 9 8 6 9 9 8 8 8 8 12 7 8 9 10 10 11 11 12 13 13 13 14 14 14 14 15 15 14 14 14 14 14 13 13 13
6 2 7 12 15 12 10 9 6 7 7 8 9 12 11 9 10 11 9 8 7 8 8 11 8 8 8 9 10 10 10 11 12 12 13 13 13 14 14 14 13 13 13 13 13 13 12 12 12
3 1 8 12 13 10 9 7 7 10 11 10 10 12 10 8 10 9 8 7 7 7 8 10 9 7 8 9 9 10 10 10 11 11 12 12 12 12 12 12 12 12 12 12 12 12 11 11 11
2 6 11 12 11 10 8 6 7 9 10 8 7 11 10 9 9 9 8 7 6 6 7 7 9 9 8 8 8 8 9 10 10 10 10 11 11 11 11 10 10 11 11 11 10 10 10 10 9
2 4 10 11 10 11 8 7 7 8 10 8 4 7 11 11 10 9 8 7 6 6 6 6 6 6 7 9 8 7 8 8 8 9 9 9 10 10 9 10 10 10 10 9 9 9 9 9 8
3 4 10 10 9 11 9 9 8 7 9 7 6 9 13 14 11 10 8 7 6 5 5 5 6 5 5 6 8 7 7 6 6 8 6 4 6 8 7 10 9 8 8 8 8 8 7 7 8
1 8 12 9 9 11 9 8 8 8 9 10 11 13 14 12 10 9 8 7 7 5 5 5 4 4 3 4 5 3 5 5 3 4 4 4 4 4 6 9 7 7 7 7 6 6 7 6 6
5 10 10 9 9 10 10 9 6 7 8 9 12 14 13 12 10 8 7 6 6 6 5 5 5 3 2 3 2 2 2 3 4 4 3 3 2 3 3 4 6 5 5 4 6 6 3 2 3
8 9 8 9 9 9 9 8 7 6 8 9 12 14 13 11 10 8 7 6 6 5 4 4 5 3 2 1 2 1 2 2 2 4 1 2 2 1 3 1 2 2 2 2 1 1 2 2 2
8 9 9 9 9 9 8 8 7 7 8 10 12 12 11 10 9 7 6 6 5 5 5 4 3 3 2 1 1 1 1 1 3 2 2 1 2 2 2 1 1 1 2 2 1 1 2 1 2
8 10 10 9 9 8 7 8 6 8 10 11 12 11 10 9 8 8 7 6 6 5 5 5 5 4 3 2 2 1 1 1 0 1 2 1 1 1 1 2 1 1 1 1 1 1 2 2 1
10 10 9 8 7 7 7 7 6 10 11 12 11 10 9 8 8 7 7 6 6 6 5 5 5 5 4 3 3 2 2 2 1 1 1 1 2 1 1 1 2 1 1 2 2 1 2 2 2
8 8 7 7 6 6 7 6 9 11 11 11 11 10 9 8 8 7 6 6 6 6 6 5 4 5 4 3 3 2 1 1 1 1 1 2 1 1 2 1 1 1 1 2 2 2 2 1 1
8 5 5 8 7 6 7 4 10 11 11 11 11 10 10 9 9 8 7 7 6 6 6 6 5 5 4 4 3 3 1 1 2 1 1 2 2 3 3 1 0 2 2 2 2 1 1 2 2
5 4 4 5 8 8 7 3 9 12 11 10 10 10 10 10 10 9 8 7 6 6 6 6 6 5 5 4 3 2 2 2 2 2 1 2 3 3 3 2 2 3 2 2 2 1 1 2 2
3 3 3 3 5 7 7 5 7 11 12 11 11 11 11 10 9 9 9 8 7 7 6 6 6 5 4 3 3 3 3 2 2 2 2 2 3 2 3 2 2 3 2 2 2 2 2 2 1
6 6 5 5 4 6 5 6 6 10 13 12 11 11 11 11 10 10 9 9 8 8 7 7 7 6 6 4 2 2 2 2 1 1 1 2 2 3 3 2 2 2 2 2 3 2 2 2 2
8 6 4 4 5 6 6 7 7 8 11 12 12 12 11 12 12 11 11 10 10 9 9 7 7 6 6 5 4 3 3 3 2 2 2 1 2 2 2 2 2 2 3 2 2 3 4 3 3
8 5 5 5 7 4 5 3 6 8 10 12 13 13 12 12 12 11 11 11 10 10 8 8 7 6 6 5 4 4 3 2 1 1 1 1 1 2 2 2 2 3 2 2 3 2 3 4 3
4 4 6 6 6 5 6 7 4 7 8 11 13 13 13 13 12 12 11 11 10 9 8 8 7 7 6 6 5 5 4 3 2 1 1 1 1 1 1 1 1 2 2 2 3 2 3 3 3
7 7 6 7 8 7 4 7 3 4 5 7 9 11 12 12 12 11 11 10 10 9 9 8 8 7 7 6 6 5 4 3 2 2 1 2 1 1 0 1 1 1 2 1 2 2 2 2 2
11 9 7 8 7 5 3 7 3 1 2 4 6 8 11 12 12 12 12 12 11 11 10 9 9 8 7 7 6 5 5 4 4 3 2 1 1 0 1 1 1 1 1 1 1 1 1 1 2
13 13 9 7 6 5 6 6 1 1 2 4 5 7 9 11 12 12 12 12 11 11 11 10 9 8 8 7 6 5 4 4 3 2 1 1 0 1 1 1 1 1 1 1 1 1 1 1 1
13 13 10 9 9 8 5 4 4 4 5 5 6 7 9 10 11 12 13 13 12 11 11 10 9 8 8 7 6 5 5 3 2 3 2 1 1 1 1 1 1 1 2 2 1 1 1 1 1
9 9 8 11 10 10 8 8 5 4 5 5 6 7 8 9 10 11 11 12 11 11 10 10 9 9 8 8 7 6 6 5 4 3 2 1 1 1 1 1 1 1 1 1 1 1 2 1 1
10 12 10 10 10 10 9 5 2 2 3 4 5 7 8 10 10 10 10 10 11 11 11 10 10 9 8 8 7 6 6 5 5 4 3 2 1 1 1 1 1 2 2 2 2 2 2 2 2
12 13 12 11 10 10 10 3 4 2 3 3 4 5 7 8 9 10 10 10 11 11 11 11 10 10 9 8 8 7 6 6 5 4 4 3 2 2 2 1 1 2 2 2 2 2 2 2 2
Wind_Direction
170 176 202 229 189 78 69 70 77 87 75 67 65 62 62 46 43 77 91 96 95 93 92 93 70 67 65 66 71 81 81 80 79 81 82 82 84 87 95 96 95 96 97 98 99 101 102 104 106
167 183 222 238 67 80 72 70 74 75 93 98 82 79 77 68 64 91 107 103 104 92 89 79 76 72 69 71 76 81 81 81 80 81 81 79 81 84 90 93 93 93 94 96 98 101 104 105 106
173 220 267 62 59 66 79 78 87 94 96 94 89 68 64 75 83 93 104 117 109 92 91 87 79 78 74 72 75 80 82 83 81 82 82 81 82 87 89 91 90 91 94 97 99 100 103 104 105
207 214 171 72 73 68 82 92 103 104 93 88 100 89 79 67 78 101 116 119 111 108 98 93 81 79 77 76 75 78 81 83 83 83 83 84 85 88 92 90 90 91 93 97 99 100 101 103 105
238 229 90 81 78 80 84 87 87 89 88 95 97 99 90 81 99 113 124 124 113 104 100 99 88 84 83 82 80 80 82 83 83 83 83 83 86 89 92 91 92 92 94 98 100 101 100 101 105
226 97 78 83 86 90 91 92 95 95 101 103 106 103 91 110 119 121 120 117 108 106 103 108 109 90 86 84 82 83 83 85 86 86 86 86 87 89 94 96 94 92 93 95 99 99 99 99 103
352 62 77 88 98 97 89 93 95 103 106 99 106 103 112 125 122 125 121 117 111 104 104 109 119 120 113 93 83 85 84 83 85 89 90 91 91 92 94 97 97 95 93 94 99 101 100 102 105
314 96 89 87 92 93 105 101 98 102 97 107 108 109 124 132 137 132 130 128 119 114 112 114 107 106 120 117 102 92 90 89 90 92 96 105 113 111 112 113 98 98 97 99 102 105 107 109 110
246 86 80 79 86 104 122 118 108 104 113 105 86 95 117 134 143 143 139 133 124 119 117 115 113 108 107 107 117 127 121 110 128 118 118 149 122 115 125 90 100 104 106 107 108 113 120 131 131
330 76 76 73 85 111 126 120 123 132 121 116 111 110 126 143 152 152 145 141 135 135 133 118 107 102 102 99 115 119 121 115 104 92 109 105 90 87 96 113 114 113 117 126 125 136 164 192 146
66 79 93 96 96 113 126 123 128 131 121 127 134 139 147 152 157 155 145 138 133 145 140 132 123 123 105 100 106 94 97 112 119 101 105 98 117 122 125 132 140 141 154 143 142 176 166 130 108
94 89 99 106 115 121 120 122 124 103 93 121 136 144 152 160 160 157 150 147 143 150 144 134 128 126 95 54 98 137 127 123 108 115 130 122 118 105 102 122 122 143 136 116 139 130 116 118 138
113 109 108 116 124 117 122 117 113 107 112 129 139 150 158 161 157 158 152 155 157 165 166 150 152 146 157 156 276 110 94 105 110 114 120 146 148 131 114 97 113 136 123 152 174 144 131 167 170
114 119 122 127 126 135 134 127 135 125 138 144 152 160 165 166 163 161 168 173 177 181 175 162 180 174 185 188 206 228 181 144 120 123 113 168 144 129 150 160 164 138 144 98 200 165 179 208 199
137 134 136 139 146 148 160 147 140 141 154 157 164 168 172 177 175 181 180 185 184 184 182 180 186 184 198 210 217 209 216 182 160 132 150 205 209 164 213 186 189 167 162 175 214 210 213 211 201
170 173 154 147 167 163 221 127 139 157 170 169 171 174 182 186 191 189 188 192 191 188 183 193 198 184 194 210 227 235 243 231 209 199 183 195 223 210 236 232 207 212 228 214 203 224 213 223 236
191 188 147 149 181 183 229 126 146 170 181 180 182 184 189 188 196 193 193 192 192 192 192 195 206 205 202 200 211 220 220 248 248 234 218 194 213 221 236 240 250 245 238 245 254 186 239 229 254
179 178 165 168 172 202 221 180 157 180 193 191 190 192 195 198 197 195 196 193 189 188 195 202 204 209 214 208 207 216 220 217 227 238 228 233 221 223 249 219 215 249 240 236 236 243 240 254 255
202 211 182 152 160 210 222 221 180 184 200 201 198 198 201 202 193 191 194 195 189 188 192 203 209 198 207 214 215 208 205 211 209 219 211 226 240 230 244 266 205 245 247 255 245 239 219 227 230
216 216 186 152 163 226 233 234 204 192 205 209 206 203 204 199 192 190 195 195 195 192 193 201 204 203 208 206 220 228 230 224 208 240 191 233 234 238 221 240 251 246 257 244 248 251 256 236 217
216 224 202 168 171 210 248 215 192 194 207 211 217 213 208 203 199 193 194 197 196 195 195 200 203 202 209 208 206 205 199 215 205 197 190 223 239 241 260 252 269 276 264 255 259 256 251 255 234
210 209 207 189 212 198 242 247 169 187 198 208 213 211 208 203 200 196 193 196 198 196 192 196 197 198 198 202 215 221 229 230 217 221 174 199 225 251 246 252 261 275 278 271 264 250 263 258 258
204 175 199 209 233 243 215 265 153 173 202 205 207 208 207 202 198 196 195 193 195 193 189 187 189 195 196 201 207 218 231 228 201 195 179 238 197 251 278 275 277 269 274 288 291 286 269 256 262
160 167 183 217 237 237 231 261 228 170 203 199 197 200 202 199 195 194 192 188 190 188 189 186 184 192 193 199 206 215 224 229 226 219 213 217 187 178 274 278 307 292 300 291 281 279 263 276 271
199 208 212 217 224 228 185 251 258 126 207 216 193 189 190 191 191 189 188 187 188 188 188 186 184 189 192 195 199 204 211 215 218 229 207 240 229 150 80 4 346 334 321 308 307 296 308 285 266
211 225 236 243 242 216 185 243 221 140 208 216 199 186 183 185 188 188 186 186 187 189 188 187 185 187 187 187 190 195 203 214 202 203 238 215 289 53 44 19 14 3 343 335 324 300 336 324 284
206 225 246 250 253 256 227 230 219 194 204 195 185 177 179 181 182 183 183 184 184 186 187 186 182 182 181 179 179 185 192 200 180 169 197 182 164 139 98 70 53 31 23 7 342 28 3 354 320
241 222 226 242 243 246 234 233 227 191 193 189 184 181 177 176 177 177 180 182 180 180 181 184 180 179 178 177 182 177 179 179 177 182 157 146 149 95 117 88 67 55 52 38 5 42 39 32 37
197 211 226 238 248 254 248 227 118 190 209 211 193 182 180 179 176 173 173 175 175 176 175 177 177 177 178 180 179 174 173 173 174 170 169 172 160 139 121 86 69 59 48 42 40 39 42 51 56
223 219 213 227 229 245 264 238 115 170 211 206 193 177 179 179 173 172 169 169 172 175 175 176 177 177 178 175 174 175 174 175 177 170 167 161 148 140 122 105 90 81 69 57 56 48 47 50 54